Wetterdaten: Sonntag, 08.05.2011
Datum Zeit Temp. A. Temp. A. min Temp. A. max Feuchte A. Bod.Feucht 4 Luftdruck Regen Wind Richtung Richtung Sonnenschein ET Solar Taupunkt Windchill Windben Empfang
08.05.2011 00:04 17,9 C 0,0 C 0,0 C 36 % 0 cb 1016,5 hPa 0,0 l/m 4,2 km/h (1 Bft) N-NW 345 0 min 0,000 mm 0 W/m 2,6 C 17,9 C 4,2 km/h (1 Bft) 0,00 %
08.05.2011 00:09 18,1 C 0,0 C 0,0 C 35 % 0 cb 1016,5 hPa 0,0 l/m 4,5 km/h (1 Bft) NO 45 0 min 0,000 mm 0 W/m 2,4 C 18,1 C 4,5 km/h (1 Bft) 0,00 %
08.05.2011 00:14 18,0 C 0,0 C 0,0 C 35 % 0 cb 1016,5 hPa 0,0 l/m 1,5 km/h (1 Bft) SW 220 0 min 0,000 mm 0 W/m 2,3 C 18,0 C 1,5 km/h (1 Bft) 0,00 %
08.05.2011 00:19 18,1 C 0,0 C 0,0 C 35 % 0 cb 1016,5 hPa 0,0 l/m 0,9 km/h (0 Bft) N-NW 335 0 min 0,000 mm 0 W/m 2,4 C 18,1 C 0,9 km/h (0 Bft) 0,00 %
08.05.2011 00:24 18,0 C 0,0 C 0,0 C 35 % 0 cb 1016,5 hPa 0,0 l/m 2,1 km/h (1 Bft) N-NW 345 0 min 0,000 mm 0 W/m 2,3 C 18,0 C 2,1 km/h (1 Bft) 0,00 %
08.05.2011 00:29 17,8 C 0,0 C 0,0 C 35 % 0 cb 1016,5 hPa 0,0 l/m 0,0 km/h (0 Bft) N-NW 345 0 min 0,000 mm 0 W/m 2,1 C 17,8 C 0,0 km/h (0 Bft) 0,00 %
08.05.2011 00:34 17,5 C 0,0 C 0,0 C 36 % 0 cb 1016,5 hPa 0,0 l/m 6,7 km/h (2 Bft) NO 35 0 min 0,000 mm 0 W/m 2,3 C 17,5 C 6,7 km/h (2 Bft) 0,00 %
08.05.2011 00:39 17,2 C 0,0 C 0,0 C 37 % 0 cb 1016,5 hPa 0,0 l/m 0,0 km/h (0 Bft) SO 125 0 min 0,000 mm 0 W/m 2,4 C 17,2 C 0,0 km/h (0 Bft) 0,00 %
08.05.2011 00:44 17,2 C 0,0 C 0,0 C 37 % 0 cb 1016,5 hPa 0,0 l/m 0,0 km/h (0 Bft) NO 55 0 min 0,000 mm 0 W/m 2,4 C 17,2 C 0,0 km/h (0 Bft) 0,00 %
08.05.2011 00:49 17,1 C 0,0 C 0,0 C 37 % 0 cb 1016,5 hPa 0,0 l/m 3,9 km/h (1 Bft) NO 40 0 min 0,000 mm 0 W/m 2,3 C 17,1 C 3,9 km/h (1 Bft) 0,00 %
08.05.2011 00:54 17,2 C 0,0 C 0,0 C 36 % 0 cb 1016,5 hPa 0,0 l/m 3,3 km/h (1 Bft) N-NW 330 0 min 0,000 mm 0 W/m 2,0 C 17,2 C 3,3 km/h (1 Bft) 0,00 %
08.05.2011 00:59 17,1 C 0,0 C 0,0 C 37 % 0 cb 1016,5 hPa 0,0 l/m 1,2 km/h (1 Bft) N 5 0 min 0,000 mm 0 W/m 2,3 C 17,1 C 1,2 km/h (1 Bft) 0,00 %
08.05.2011 01:04 17,0 C 0,0 C 0,0 C 37 % 0 cb 1016,5 hPa 0,0 l/m 0,0 km/h (0 Bft) NW 305 0 min 0,000 mm 0 W/m 2,2 C 17,0 C 0,0 km/h (0 Bft) 0,00 %
08.05.2011 01:09 17,0 C 0,0 C 0,0 C 37 % 0 cb 1016,5 hPa 0,0 l/m 1,8 km/h (1 Bft) O 100 0 min 0,000 mm 0 W/m 2,2 C 17,0 C 1,8 km/h (1 Bft) 0,00 %
08.05.2011 01:14 17,0 C 0,0 C 0,0 C 37 % 0 cb 1016,5 hPa 0,0 l/m 2,1 km/h (1 Bft) N 10 0 min 0,000 mm 0 W/m 2,2 C 17,0 C 2,1 km/h (1 Bft) 0,00 %
08.05.2011 01:19 17,1 C 0,0 C 0,0 C 37 % 0 cb 1016,5 hPa 0,0 l/m 3,3 km/h (1 Bft) N 10 0 min 0,000 mm 0 W/m 2,3 C 17,1 C 3,3 km/h (1 Bft) 0,00 %
08.05.2011 01:24 16,8 C 0,0 C 0,0 C 38 % 0 cb 1016,5 hPa 0,0 l/m 0,6 km/h (0 Bft) SO 130 0 min 0,000 mm 0 W/m 2,4 C 16,8 C 0,6 km/h (0 Bft) 0,00 %
08.05.2011 01:29 16,6 C 0,0 C 0,0 C 39 % 0 cb 1016,5 hPa 0,0 l/m 0,0 km/h (0 Bft) W-NW 295 0 min 0,000 mm 0 W/m 2,6 C 16,6 C 0,0 km/h (0 Bft) 0,00 %
08.05.2011 01:34 16,4 C 0,0 C 0,0 C 40 % 0 cb 1016,5 hPa 0,0 l/m 0,0 km/h (0 Bft) NO 50 0 min 0,000 mm 0 W/m 2,8 C 16,4 C 0,0 km/h (0 Bft) 0,00 %
08.05.2011 01:39 16,2 C 0,0 C 0,0 C 40 % 0 cb 1016,5 hPa 0,0 l/m 0,0 km/h (0 Bft) N 0 0 min 0,000 mm 0 W/m 2,6 C 16,2 C 0,0 km/h (0 Bft) 0,00 %
08.05.2011 01:44 16,2 C 0,0 C 0,0 C 40 % 0 cb 1016,5 hPa 0,0 l/m 0,0 km/h (0 Bft) N 355 0 min 0,000 mm 0 W/m 2,6 C 16,2 C 0,0 km/h (0 Bft) 0,00 %
08.05.2011 01:49 16,2 C 0,0 C 0,0 C 40 % 0 cb 1016,5 hPa 0,0 l/m 2,4 km/h (1 Bft) N-NO 20 0 min 0,000 mm 0 W/m 2,6 C 16,2 C 2,4 km/h (1 Bft) 0,00 %
08.05.2011 01:54 16,0 C 0,0 C 0,0 C 41 % 0 cb 1016,5 hPa 0,0 l/m 0,0 km/h (0 Bft) NW 315 0 min 0,000 mm 0 W/m 2,8 C 16,0 C 0,0 km/h (0 Bft) 0,00 %
08.05.2011 01:59 15,9 C 0,0 C 0,0 C 41 % 0 cb 1016,5 hPa 0,0 l/m 0,0 km/h (0 Bft) S-SW 210 0 min 0,000 mm 0 W/m 2,7 C 15,9 C 0,0 km/h (0 Bft) 0,00 %
08.05.2011 02:04 15,5 C 0,0 C 0,0 C 43 % 0 cb 1016,5 hPa 0,0 l/m 1,2 km/h (1 Bft) W-NW 295 0 min 0,000 mm 0 W/m 3,0 C 15,5 C 1,2 km/h (1 Bft) 0,00 %
08.05.2011 02:09 15,4 C 0,0 C 0,0 C 43 % 0 cb 1016,5 hPa 0,0 l/m 3,9 km/h (1 Bft) NW 320 0 min 0,000 mm 0 W/m 2,9 C 15,4 C 3,9 km/h (1 Bft) 0,00 %
08.05.2011 02:14 15,1 C 0,0 C 0,0 C 44 % 0 cb 1016,5 hPa 0,0 l/m 1,8 km/h (1 Bft) N 350 0 min 0,000 mm 0 W/m 2,9 C 15,1 C 1,8 km/h (1 Bft) 0,00 %
08.05.2011 02:19 15,2 C 0,0 C 0,0 C 44 % 0 cb 1016,5 hPa 0,0 l/m 3,0 km/h (1 Bft) N 10 0 min 0,000 mm 0 W/m 3,0 C 15,2 C 3,0 km/h (1 Bft) 0,00 %
08.05.2011 02:24 15,1 C 0,0 C 0,0 C 45 % 0 cb 1016,5 hPa 0,0 l/m 5,4 km/h (1 Bft) N-NO 15 0 min 0,000 mm 0 W/m 3,3 C 15,1 C 5,4 km/h (1 Bft) 0,00 %
08.05.2011 02:29 15,0 C 0,0 C 0,0 C 45 % 0 cb 1016,5 hPa 0,0 l/m 3,6 km/h (1 Bft) W-NW 300 0 min 0,000 mm 0 W/m 3,2 C 15,0 C 3,6 km/h (1 Bft) 0,00 %
08.05.2011 02:34 15,1 C 0,0 C 0,0 C 45 % 0 cb 1016,5 hPa 0,0 l/m 0,3 km/h (0 Bft) W-NW 290 0 min 0,000 mm 0 W/m 3,3 C 15,1 C 0,3 km/h (0 Bft) 0,00 %
08.05.2011 02:39 14,9 C 0,0 C 0,0 C 46 % 0 cb 1016,5 hPa 0,0 l/m 3,0 km/h (1 Bft) N-NO 15 0 min 0,000 mm 0 W/m 3,4 C 14,9 C 3,0 km/h (1 Bft) 0,00 %
08.05.2011 02:44 14,8 C 0,0 C 0,0 C 47 % 0 cb 1016,5 hPa 0,0 l/m 4,5 km/h (1 Bft) N-NW 330 0 min 0,000 mm 0 W/m 3,6 C 14,8 C 4,5 km/h (1 Bft) 0,00 %
08.05.2011 02:49 14,7 C 0,0 C 0,0 C 48 % 0 cb 1016,5 hPa 0,0 l/m 3,6 km/h (1 Bft) W-NW 295 0 min 0,000 mm 0 W/m 3,8 C 14,7 C 3,6 km/h (1 Bft) 0,00 %
08.05.2011 02:54 14,6 C 0,0 C 0,0 C 48 % 0 cb 1016,5 hPa 0,0 l/m 6,4 km/h (2 Bft) NW 325 0 min 0,000 mm 0 W/m 3,7 C 14,6 C 6,4 km/h (2 Bft) 0,00 %
08.05.2011 02:59 14,6 C 0,0 C 0,0 C 48 % 0 cb 1016,5 hPa 0,0 l/m 4,8 km/h (1 Bft) W 270 0 min 0,000 mm 0 W/m 3,7 C 14,6 C 4,8 km/h (1 Bft) 0,00 %
08.05.2011 03:04 14,6 C 0,0 C 0,0 C 48 % 0 cb 1016,5 hPa 0,0 l/m 4,2 km/h (1 Bft) W-NW 300 0 min 0,000 mm 0 W/m 3,7 C 14,6 C 4,2 km/h (1 Bft) 0,00 %
08.05.2011 03:09 14,4 C 0,0 C 0,0 C 49 % 0 cb 1016,5 hPa 0,0 l/m 4,2 km/h (1 Bft) N 355 0 min 0,000 mm 0 W/m 3,8 C 14,4 C 4,2 km/h (1 Bft) 0,00 %
08.05.2011 03:14 14,2 C 0,0 C 0,0 C 50 % 0 cb 1016,5 hPa 0,0 l/m 3,3 km/h (1 Bft) N 0 0 min 0,000 mm 0 W/m 3,9 C 14,2 C 3,3 km/h (1 Bft) 0,00 %
08.05.2011 03:19 13,9 C 0,0 C 0,0 C 50 % 0 cb 1016,5 hPa 0,0 l/m 1,8 km/h (1 Bft) NW 310 0 min 0,000 mm 0 W/m 3,7 C 13,9 C 1,8 km/h (1 Bft) 0,00 %
08.05.2011 03:24 13,7 C 0,0 C 0,0 C 51 % 0 cb 1016,5 hPa 0,0 l/m 1,5 km/h (1 Bft) N-NW 330 0 min 0,000 mm 0 W/m 3,8 C 13,7 C 1,5 km/h (1 Bft) 0,00 %
08.05.2011 03:29 13,6 C 0,0 C 0,0 C 51 % 0 cb 1016,5 hPa 0,0 l/m 2,1 km/h (1 Bft) N-NW 345 0 min 0,000 mm 0 W/m 3,7 C 13,6 C 2,1 km/h (1 Bft) 0,00 %
08.05.2011 03:34 13,7 C 0,0 C 0,0 C 51 % 0 cb 1016,5 hPa 0,0 l/m 7,0 km/h (2 Bft) N-NO 30 0 min 0,000 mm 0 W/m 3,8 C 13,7 C 7,0 km/h (2 Bft) 0,00 %
08.05.2011 03:39 13,8 C 0,0 C 0,0 C 51 % 0 cb 1016,5 hPa 0,0 l/m 8,2 km/h (2 Bft) NO 55 0 min 0,000 mm 0 W/m 3,8 C 13,8 C 8,2 km/h (2 Bft) 0,00 %
08.05.2011 03:44 13,9 C 0,0 C 0,0 C 51 % 0 cb 1016,5 hPa 0,0 l/m 7,6 km/h (2 Bft) N 355 0 min 0,000 mm 0 W/m 3,9 C 13,9 C 7,6 km/h (2 Bft) 0,00 %
08.05.2011 03:49 13,8 C 0,0 C 0,0 C 51 % 0 cb 1016,5 hPa 0,0 l/m 7,3 km/h (2 Bft) S-SW 210 0 min 0,000 mm 0 W/m 3,8 C 13,8 C 7,3 km/h (2 Bft) 0,00 %
08.05.2011 03:54 13,8 C 0,0 C 0,0 C 51 % 0 cb 1016,5 hPa 0,0 l/m 3,9 km/h (1 Bft) W-NW 285 0 min 0,000 mm 0 W/m 3,8 C 13,8 C 3,9 km/h (1 Bft) 0,00 %
08.05.2011 03:59 13,8 C 0,0 C 0,0 C 51 % 0 cb 1016,5 hPa 0,0 l/m 5,1 km/h (1 Bft) NO 35 0 min 0,000 mm 0 W/m 3,8 C 13,8 C 5,1 km/h (1 Bft) 0,00 %
08.05.2011 04:04 13,7 C 0,0 C 0,0 C 51 % 0 cb 1016,5 hPa 0,0 l/m 4,2 km/h (1 Bft) O 80 0 min 0,000 mm 0 W/m 3,8 C 13,7 C 4,2 km/h (1 Bft) 0,00 %
08.05.2011 04:09 13,6 C 0,0 C 0,0 C 51 % 0 cb 1016,5 hPa 0,0 l/m 4,2 km/h (1 Bft) W-NW 290 0 min 0,000 mm 0 W/m 3,7 C 13,6 C 4,2 km/h (1 Bft) 0,00 %
08.05.2011 04:14 13,6 C 0,0 C 0,0 C 51 % 0 cb 1016,5 hPa 0,0 l/m 3,3 km/h (1 Bft) NW 325 0 min 0,000 mm 0 W/m 3,7 C 13,6 C 3,3 km/h (1 Bft) 0,00 %
08.05.2011 04:19 13,5 C 0,0 C 0,0 C 51 % 0 cb 1016,5 hPa 0,0 l/m 4,5 km/h (1 Bft) NW 315 0 min 0,000 mm 0 W/m 3,6 C 13,5 C 4,5 km/h (1 Bft) 0,00 %
08.05.2011 04:24 13,5 C 0,0 C 0,0 C 50 % 0 cb 1016,5 hPa 0,0 l/m 7,0 km/h (2 Bft) N 355 0 min 0,000 mm 0 W/m 3,3 C 13,5 C 7,0 km/h (2 Bft) 0,00 %
08.05.2011 04:29 13,5 C 0,0 C 0,0 C 50 % 0 cb 1016,5 hPa 0,0 l/m 5,1 km/h (1 Bft) O-NO 60 0 min 0,000 mm 0 W/m 3,3 C 13,5 C 5,1 km/h (1 Bft) 0,00 %
08.05.2011 04:34 13,6 C 0,0 C 0,0 C 50 % 0 cb 1016,5 hPa 0,0 l/m 7,9 km/h (2 Bft) N-NW 330 0 min 0,000 mm 0 W/m 3,4 C 13,6 C 7,9 km/h (2 Bft) 0,00 %
08.05.2011 04:39 13,5 C 0,0 C 0,0 C 50 % 0 cb 1016,5 hPa 0,0 l/m 0,0 km/h (0 Bft) W-NW 300 0 min 0,000 mm 0 W/m 3,3 C 13,5 C 0,0 km/h (0 Bft) 0,00 %
08.05.2011 04:44 13,5 C 0,0 C 0,0 C 50 % 0 cb 1016,5 hPa 0,0 l/m 1,8 km/h (1 Bft) NW 315 0 min 0,000 mm 0 W/m 3,3 C 13,5 C 1,8 km/h (1 Bft) 0,00 %
08.05.2011 04:49 13,4 C 0,0 C 0,0 C 50 % 0 cb 1016,5 hPa 0,0 l/m 3,3 km/h (1 Bft) NW 310 0 min 0,000 mm 0 W/m 3,2 C 13,4 C 3,3 km/h (1 Bft) 0,00 %
08.05.2011 04:54 13,3 C 0,0 C 0,0 C 50 % 0 cb 1016,5 hPa 0,0 l/m 2,7 km/h (1 Bft) NW 320 0 min 0,000 mm 0 W/m 3,1 C 13,3 C 2,7 km/h (1 Bft) 0,00 %
08.05.2011 04:59 13,0 C 0,0 C 0,0 C 51 % 0 cb 1016,5 hPa 0,0 l/m 1,8 km/h (1 Bft) NW 320 0 min 0,000 mm 0 W/m 3,1 C 13,0 C 1,8 km/h (1 Bft) 0,00 %
08.05.2011 05:04 12,8 C 0,0 C 0,0 C 51 % 0 cb 1016,5 hPa 0,0 l/m 2,4 km/h (1 Bft) N 5 0 min 0,000 mm 0 W/m 2,9 C 12,8 C 2,4 km/h (1 Bft) 0,00 %
08.05.2011 05:09 12,6 C 0,0 C 0,0 C 52 % 0 cb 1016,5 hPa 0,0 l/m 0,0 km/h (0 Bft) NW 320 0 min 0,000 mm 0 W/m 3,0 C 12,6 C 0,0 km/h (0 Bft) 0,00 %
08.05.2011 05:14 12,3 C 0,0 C 0,0 C 53 % 0 cb 1016,5 hPa 0,0 l/m 0,3 km/h (0 Bft) N 350 0 min 0,000 mm 0 W/m 3,0 C 12,3 C 0,3 km/h (0 Bft) 0,00 %
08.05.2011 05:19 12,2 C 0,0 C 0,0 C 54 % 0 cb 1016,5 hPa 0,0 l/m 2,1 km/h (1 Bft) N 350 0 min 0,000 mm 0 W/m 3,2 C 12,2 C 2,1 km/h (1 Bft) 0,00 %
08.05.2011 05:24 12,1 C 0,0 C 0,0 C 54 % 0 cb 1016,5 hPa 0,0 l/m 0,0 km/h (0 Bft) N-NW 335 0 min 0,000 mm 0 W/m 3,1 C 12,1 C 0,0 km/h (0 Bft) 0,00 %
08.05.2011 05:29 11,9 C 0,0 C 0,0 C 55 % 0 cb 1016,5 hPa 0,0 l/m 0,0 km/h (0 Bft) NW 325 0 min 0,000 mm 0 W/m 3,2 C 11,9 C 0,0 km/h (0 Bft) 0,00 %
08.05.2011 05:34 11,9 C 0,0 C 0,0 C 55 % 0 cb 1016,5 hPa 0,0 l/m 0,3 km/h (0 Bft) N 10 0 min 0,000 mm 0 W/m 3,2 C 11,9 C 0,3 km/h (0 Bft) 0,00 %
08.05.2011 05:39 11,8 C 0,0 C 0,0 C 56 % 0 cb 1016,5 hPa 0,0 l/m 2,7 km/h (1 Bft) O-NO 60 0 min 0,000 mm 0 W/m 3,3 C 11,8 C 2,7 km/h (1 Bft) 0,00 %
08.05.2011 05:44 11,7 C 0,0 C 0,0 C 56 % 0 cb 1016,5 hPa 0,0 l/m 0,9 km/h (0 Bft) N-NW 345 0 min 0,000 mm 0 W/m 3,2 C 11,7 C 0,9 km/h (0 Bft) 0,00 %
08.05.2011 05:49 12,1 C 0,0 C 0,0 C 55 % 0 cb 1016,5 hPa 0,0 l/m 3,9 km/h (1 Bft) N 350 0 min 0,000 mm 0 W/m 3,3 C 12,1 C 3,9 km/h (1 Bft) 0,00 %
08.05.2011 05:54 12,2 C 0,0 C 0,0 C 55 % 0 cb 1016,5 hPa 0,0 l/m 4,2 km/h (1 Bft) N-NW 330 0 min 0,000 mm 0 W/m 3,4 C 12,2 C 4,2 km/h (1 Bft) 0,00 %
08.05.2011 05:59 12,2 C 0,0 C 0,0 C 54 % 0 cb 1016,5 hPa 0,0 l/m 3,0 km/h (1 Bft) W-NW 295 0 min 0,000 mm 0 W/m 3,2 C 12,2 C 3,0 km/h (1 Bft) 0,00 %
08.05.2011 06:04 12,4 C 0,0 C 0,0 C 53 % 0 cb 1016,5 hPa 0,0 l/m 6,7 km/h (2 Bft) NW 315 0 min 0,000 mm 0 W/m 3,1 C 12,4 C 6,7 km/h (2 Bft) 0,00 %
08.05.2011 06:09 12,2 C 0,0 C 0,0 C 54 % 0 cb 1016,5 hPa 0,0 l/m 6,7 km/h (2 Bft) NW 320 0 min 0,000 mm 0 W/m 3,2 C 12,2 C 6,7 km/h (2 Bft) 0,00 %
08.05.2011 06:14 12,2 C 0,0 C 0,0 C 54 % 0 cb 1016,5 hPa 0,0 l/m 4,2 km/h (1 Bft) N-NW 340 0 min 0,000 mm 0 W/m 3,2 C 12,2 C 4,2 km/h (1 Bft) 0,00 %
08.05.2011 06:19 12,3 C 0,0 C 0,0 C 54 % 0 cb 1017,5 hPa 0,0 l/m 7,3 km/h (2 Bft) N 10 0 min 0,000 mm 0 W/m 3,3 C 12,3 C 7,3 km/h (2 Bft) 0,00 %
08.05.2011 06:24 12,5 C 0,0 C 0,0 C 53 % 0 cb 1017,5 hPa 0,0 l/m 8,5 km/h (2 Bft) NW 320 0 min 0,000 mm 0 W/m 3,2 C 12,5 C 8,5 km/h (2 Bft) 0,00 %
08.05.2011 06:29 12,4 C 0,0 C 0,0 C 53 % 0 cb 1017,5 hPa 0,0 l/m 0,9 km/h (0 Bft) N 5 0 min 0,000 mm 0 W/m 3,1 C 12,4 C 0,9 km/h (0 Bft) 0,00 %
08.05.2011 06:34 12,4 C 0,0 C 0,0 C 53 % 0 cb 1017,5 hPa 0,0 l/m 1,8 km/h (1 Bft) N-NW 330 0 min 0,000 mm 0 W/m 3,1 C 12,4 C 1,8 km/h (1 Bft) 0,00 %
08.05.2011 06:39 12,4 C 0,0 C 0,0 C 54 % 0 cb 1017,5 hPa 0,0 l/m 0,0 km/h (0 Bft) N-NW 330 0 min 0,000 mm 0 W/m 3,4 C 12,4 C 0,0 km/h (0 Bft) 0,00 %
08.05.2011 06:44 12,4 C 0,0 C 0,0 C 54 % 0 cb 1017,5 hPa 0,0 l/m 0,0 km/h (0 Bft) NW 320 0 min 0,000 mm 0 W/m 3,4 C 12,4 C 0,0 km/h (0 Bft) 0,00 %
08.05.2011 06:49 12,6 C 0,0 C 0,0 C 54 % 0 cb 1017,5 hPa 0,0 l/m 0,0 km/h (0 Bft) N-NW 330 0 min 0,000 mm 0 W/m 3,5 C 12,6 C 0,0 km/h (0 Bft) 0,00 %
08.05.2011 06:54 12,6 C 0,0 C 0,0 C 54 % 0 cb 1017,5 hPa 0,0 l/m 0,0 km/h (0 Bft) NW 320 0 min 0,000 mm 0 W/m 3,5 C 12,6 C 0,0 km/h (0 Bft) 0,00 %
08.05.2011 06:59 12,7 C 0,0 C 0,0 C 54 % 0 cb 1017,5 hPa 0,0 l/m 0,0 km/h (0 Bft) W-NW 300 0 min 0,000 mm 0 W/m 3,6 C 12,7 C 0,0 km/h (0 Bft) 0,00 %
08.05.2011 07:04 12,9 C 0,0 C 0,0 C 54 % 0 cb 1017,5 hPa 0,0 l/m 0,0 km/h (0 Bft) O-NO 75 0 min 0,000 mm 0 W/m 3,8 C 12,9 C 0,0 km/h (0 Bft) 0,00 %
08.05.2011 07:09 13,1 C 0,0 C 0,0 C 54 % 2 cb 1017,5 hPa 0,0 l/m 2,4 km/h (1 Bft) NW 320 0 min 0,000 mm 0 W/m 4,0 C 13,1 C 2,4 km/h (1 Bft) 0,00 %
08.05.2011 07:14 13,2 C 0,0 C 0,0 C 54 % 1 cb 1017,5 hPa 0,0 l/m 2,7 km/h (1 Bft) N 5 0 min 0,000 mm 0 W/m 4,1 C 13,2 C 2,7 km/h (1 Bft) 0,00 %
08.05.2011 07:19 13,4 C 0,0 C 0,0 C 54 % 5 cb 1017,5 hPa 0,0 l/m 0,0 km/h (0 Bft) NW 305 0 min 0,000 mm 0 W/m 4,3 C 13,4 C 0,0 km/h (0 Bft) 0,00 %
08.05.2011 07:24 13,6 C 0,0 C 0,0 C 52 % 5 cb 1017,5 hPa 0,0 l/m 3,6 km/h (1 Bft) S-SW 200 0 min 0,000 mm 0 W/m 3,9 C 13,6 C 3,6 km/h (1 Bft) 0,00 %
08.05.2011 07:29 13,7 C 0,0 C 0,0 C 52 % 3 cb 1017,5 hPa 0,0 l/m 3,9 km/h (1 Bft) NW 315 0 min 0,000 mm 0 W/m 4,0 C 13,7 C 3,9 km/h (1 Bft) 0,00 %
08.05.2011 07:34 13,8 C 0,0 C 0,0 C 52 % 0 cb 1018,5 hPa 0,0 l/m 4,2 km/h (1 Bft) NW 315 0 min 0,000 mm 0 W/m 4,1 C 13,8 C 4,2 km/h (1 Bft) 0,00 %
08.05.2011 07:39 13,9 C 0,0 C 0,0 C 52 % 0 cb 1018,5 hPa 0,0 l/m 0,0 km/h (0 Bft) W-NW 300 0 min 0,000 mm 0 W/m 4,2 C 13,9 C 0,0 km/h (0 Bft) 0,00 %
08.05.2011 07:44 13,9 C 0,0 C 0,0 C 52 % 0 cb 1018,5 hPa 0,0 l/m 1,8 km/h (1 Bft) NW 305 0 min 0,000 mm 0 W/m 4,2 C 13,9 C 1,8 km/h (1 Bft) 0,00 %
08.05.2011 07:49 14,1 C 0,0 C 0,0 C 52 % 2 cb 1017,5 hPa 0,0 l/m 3,6 km/h (1 Bft) NW 325 0 min 0,000 mm 0 W/m 4,4 C 14,1 C 3,6 km/h (1 Bft) 0,00 %
08.05.2011 07:54 14,3 C 0,0 C 0,0 C 51 % 4 cb 1017,5 hPa 0,0 l/m 4,5 km/h (1 Bft) N-NO 25 0 min 0,000 mm 0 W/m 4,3 C 14,3 C 4,5 km/h (1 Bft) 0,00 %
08.05.2011 07:59 14,6 C 0,0 C 0,0 C 50 % 0 cb 1017,5 hPa 0,0 l/m 5,4 km/h (1 Bft) N-NW 340 0 min 0,000 mm 0 W/m 4,3 C 14,6 C 5,4 km/h (1 Bft) 0,00 %
08.05.2011 08:04 14,6 C 0,0 C 0,0 C 49 % 4 cb 1017,5 hPa 0,0 l/m 7,3 km/h (2 Bft) W-NW 295 0 min 0,000 mm 0 W/m 4,0 C 14,6 C 7,3 km/h (2 Bft) 0,00 %
08.05.2011 08:09 14,9 C 0,0 C 0,0 C 49 % 5 cb 1017,5 hPa 0,0 l/m 6,1 km/h (2 Bft) N-NW 345 0 min 0,000 mm 0 W/m 4,3 C 14,9 C 6,1 km/h (2 Bft) 0,00 %
08.05.2011 08:14 15,3 C 0,0 C 0,0 C 48 % 5 cb 1017,5 hPa 0,0 l/m 3,3 km/h (1 Bft) W-NW 300 0 min 0,000 mm 0 W/m 4,4 C 15,3 C 3,3 km/h (1 Bft) 0,00 %
08.05.2011 08:19 15,5 C 0,0 C 0,0 C 48 % 4 cb 1018,5 hPa 0,0 l/m 0,0 km/h (0 Bft) SW 230 0 min 0,000 mm 0 W/m 4,5 C 15,5 C 0,0 km/h (0 Bft) 0,00 %
08.05.2011 08:24 15,4 C 0,0 C 0,0 C 48 % 6 cb 1018,5 hPa 0,0 l/m 8,5 km/h (2 Bft) NW 310 0 min 0,000 mm 0 W/m 4,4 C 15,4 C 8,5 km/h (2 Bft) 0,00 %
08.05.2011 08:29 15,8 C 0,0 C 0,0 C 48 % 4 cb 1018,5 hPa 0,0 l/m 2,4 km/h (1 Bft) NO 45 0 min 0,000 mm 0 W/m 4,8 C 15,8 C 2,4 km/h (1 Bft) 0,00 %
08.05.2011 08:34 16,0 C 0,0 C 0,0 C 47 % 6 cb 1017,5 hPa 0,0 l/m 4,5 km/h (1 Bft) N-NO 20 0 min 0,000 mm 0 W/m 4,7 C 16,0 C 4,5 km/h (1 Bft) 0,00 %
08.05.2011 08:39 16,0 C 0,0 C 0,0 C 47 % 5 cb 1017,5 hPa 0,0 l/m 6,4 km/h (2 Bft) O 100 0 min 0,000 mm 0 W/m 4,7 C 16,0 C 6,4 km/h (2 Bft) 0,00 %
08.05.2011 08:44 16,4 C 0,0 C 0,0 C 48 % 5 cb 1017,5 hPa 0,0 l/m 1,8 km/h (1 Bft) N 5 0 min 0,000 mm 0 W/m 5,4 C 16,4 C 1,8 km/h (1 Bft) 0,00 %
08.05.2011 08:49 16,6 C 0,0 C 0,0 C 47 % 5 cb 1017,5 hPa 0,0 l/m 3,0 km/h (1 Bft) N-NW 330 0 min 0,000 mm 0 W/m 5,2 C 16,6 C 3,0 km/h (1 Bft) 0,00 %
08.05.2011 08:54 16,9 C 0,0 C 0,0 C 47 % 5 cb 1017,5 hPa 0,0 l/m 5,4 km/h (1 Bft) NO 55 0 min 0,000 mm 0 W/m 5,5 C 16,9 C 5,4 km/h (1 Bft) 0,00 %
08.05.2011 08:59 17,2 C 0,0 C 0,0 C 46 % 5 cb 1017,5 hPa 0,0 l/m 2,7 km/h (1 Bft) N-NW 330 0 min 0,000 mm 0 W/m 5,5 C 17,2 C 2,7 km/h (1 Bft) 0,00 %
08.05.2011 09:04 17,5 C 0,0 C 0,0 C 45 % 6 cb 1018,5 hPa 0,0 l/m 4,2 km/h (1 Bft) N-NO 25 0 min 0,000 mm 0 W/m 5,4 C 17,5 C 4,2 km/h (1 Bft) 0,00 %
08.05.2011 09:09 17,4 C 0,0 C 0,0 C 45 % 5 cb 1018,5 hPa 0,0 l/m 4,2 km/h (1 Bft) N-NW 340 0 min 0,000 mm 0 W/m 5,3 C 17,4 C 4,2 km/h (1 Bft) 0,00 %
08.05.2011 09:14 17,5 C 0,0 C 0,0 C 46 % 4 cb 1018,5 hPa 0,0 l/m 6,1 km/h (2 Bft) NW 320 0 min 0,000 mm 0 W/m 5,8 C 17,5 C 6,1 km/h (2 Bft) 0,00 %
08.05.2011 09:19 18,2 C 0,0 C 0,0 C 44 % 6 cb 1018,5 hPa 0,0 l/m 4,2 km/h (1 Bft) O 90 0 min 0,000 mm 0 W/m 5,7 C 18,2 C 4,2 km/h (1 Bft) 0,00 %
08.05.2011 09:24 18,3 C 0,0 C 0,0 C 44 % 4 cb 1018,5 hPa 0,0 l/m 2,7 km/h (1 Bft) SW 235 0 min 0,000 mm 0 W/m 5,8 C 18,3 C 2,7 km/h (1 Bft) 0,00 %
08.05.2011 09:29 19,0 C 0,0 C 0,0 C 42 % 6 cb 1018,5 hPa 0,0 l/m 4,5 km/h (1 Bft) N 5 0 min 0,000 mm 0 W/m 5,8 C 19,0 C 4,5 km/h (1 Bft) 0,00 %
08.05.2011 09:34 19,0 C 0,0 C 0,0 C 42 % 5 cb 1018,5 hPa 0,0 l/m 3,0 km/h (1 Bft) N 350 0 min 0,000 mm 0 W/m 5,8 C 19,0 C 3,0 km/h (1 Bft) 0,00 %
08.05.2011 09:39 19,1 C 0,0 C 0,0 C 41 % 5 cb 1018,5 hPa 0,0 l/m 7,9 km/h (2 Bft) O-SO 110 0 min 0,000 mm 0 W/m 5,5 C 19,1 C 7,9 km/h (2 Bft) 0,00 %
08.05.2011 09:44 19,3 C 0,0 C 0,0 C 40 % 5 cb 1018,5 hPa 0,0 l/m 2,7 km/h (1 Bft) O-NO 75 0 min 0,000 mm 0 W/m 5,4 C 19,3 C 2,7 km/h (1 Bft) 0,00 %
08.05.2011 09:49 19,6 C 0,0 C 0,0 C 39 % 5 cb 1018,5 hPa 0,0 l/m 2,7 km/h (1 Bft) SO 130 0 min 0,000 mm 0 W/m 5,3 C 19,6 C 2,7 km/h (1 Bft) 0,00 %
08.05.2011 09:54 20,0 C 0,0 C 0,0 C 39 % 5 cb 1018,5 hPa 0,0 l/m 2,4 km/h (1 Bft) O-NO 75 0 min 0,000 mm 0 W/m 5,6 C 20,0 C 2,4 km/h (1 Bft) 0,00 %
08.05.2011 09:59 20,0 C 0,0 C 0,0 C 39 % 5 cb 1018,5 hPa 0,0 l/m 4,8 km/h (1 Bft) SO 125 0 min 0,000 mm 0 W/m 5,6 C 20,0 C 4,8 km/h (1 Bft) 0,00 %
08.05.2011 10:04 20,4 C 0,0 C 0,0 C 39 % 3 cb 1018,5 hPa 0,0 l/m 0,0 km/h (0 Bft) O 95 0 min 0,000 mm 0 W/m 6,0 C 20,4 C 0,0 km/h (0 Bft) 0,00 %
08.05.2011 10:09 20,5 C 0,0 C 0,0 C 37 % 5 cb 1018,5 hPa 0,0 l/m 8,2 km/h (2 Bft) N-NO 25 0 min 0,000 mm 0 W/m 5,3 C 20,5 C 8,2 km/h (2 Bft) 0,00 %
08.05.2011 10:14 20,2 C 0,0 C 0,0 C 37 % 5 cb 1018,5 hPa 0,0 l/m 8,5 km/h (2 Bft) SW 235 0 min 0,000 mm 0 W/m 5,0 C 20,2 C 8,5 km/h (2 Bft) 0,00 %
08.05.2011 10:19 20,5 C 0,0 C 0,0 C 37 % 7 cb 1018,5 hPa 0,0 l/m 4,8 km/h (1 Bft) SO 145 0 min 0,000 mm 0 W/m 5,3 C 20,5 C 4,8 km/h (1 Bft) 0,00 %
08.05.2011 10:24 20,6 C 0,0 C 0,0 C 37 % 3 cb 1018,5 hPa 0,0 l/m 5,4 km/h (1 Bft) S 180 0 min 0,000 mm 0 W/m 5,4 C 20,6 C 5,4 km/h (1 Bft) 0,00 %
08.05.2011 10:29 20,5 C 0,0 C 0,0 C 37 % 6 cb 1018,5 hPa 0,0 l/m 5,4 km/h (1 Bft) SO 140 0 min 0,000 mm 0 W/m 5,3 C 20,5 C 5,4 km/h (1 Bft) 0,00 %
08.05.2011 10:34 21,1 C 0,0 C 0,0 C 37 % 4 cb 1018,5 hPa 0,0 l/m 0,0 km/h (0 Bft) S 180 0 min 0,000 mm 0 W/m 5,8 C 21,1 C 0,0 km/h (0 Bft) 0,00 %
08.05.2011 10:39 20,5 C 0,0 C 0,0 C 38 % 6 cb 1018,5 hPa 0,0 l/m 7,6 km/h (2 Bft) S-SO 160 0 min 0,000 mm 0 W/m 5,7 C 20,5 C 7,6 km/h (2 Bft) 0,00 %
08.05.2011 10:44 20,4 C 0,0 C 0,0 C 39 % 4 cb 1018,5 hPa 0,0 l/m 5,1 km/h (1 Bft) SO 140 0 min 0,000 mm 0 W/m 6,0 C 20,4 C 5,1 km/h (1 Bft) 0,00 %
08.05.2011 10:49 20,8 C 0,0 C 0,0 C 38 % 6 cb 1018,5 hPa 0,0 l/m 7,0 km/h (2 Bft) NW 310 0 min 0,000 mm 0 W/m 6,0 C 20,8 C 7,0 km/h (2 Bft) 0,00 %
08.05.2011 10:54 21,0 C 0,0 C 0,0 C 38 % 5 cb 1018,5 hPa 0,0 l/m 6,4 km/h (2 Bft) O-NO 65 0 min 0,000 mm 0 W/m 6,1 C 21,0 C 6,4 km/h (2 Bft) 0,00 %
08.05.2011 10:59 21,4 C 0,0 C 0,0 C 38 % 5 cb 1018,5 hPa 0,0 l/m 2,4 km/h (1 Bft) SW 230 0 min 0,000 mm 0 W/m 6,5 C 21,4 C 2,4 km/h (1 Bft) 0,00 %
08.05.2011 11:04 22,0 C 0,0 C 0,0 C 37 % 5 cb 1018,5 hPa 0,0 l/m 4,2 km/h (1 Bft) W-SW 250 0 min 0,000 mm 0 W/m 6,6 C 22,0 C 4,2 km/h (1 Bft) 0,00 %
08.05.2011 11:09 22,4 C 0,0 C 0,0 C 36 % 5 cb 1018,5 hPa 0,0 l/m 3,6 km/h (1 Bft) SO 145 0 min 0,000 mm 0 W/m 6,6 C 22,4 C 3,6 km/h (1 Bft) 0,00 %
08.05.2011 11:14 22,6 C 0,0 C 0,0 C 36 % 5 cb 1018,5 hPa 0,0 l/m 6,7 km/h (2 Bft) N-NO 15 0 min 0,000 mm 0 W/m 6,8 C 22,6 C 6,7 km/h (2 Bft) 0,00 %
08.05.2011 11:19 22,0 C 0,0 C 0,0 C 36 % 4 cb 1018,5 hPa 0,0 l/m 8,8 km/h (2 Bft) O-SO 110 0 min 0,000 mm 0 W/m 6,2 C 22,0 C 8,8 km/h (2 Bft) 0,00 %
08.05.2011 11:24 22,8 C 0,0 C 0,0 C 35 % 6 cb 1018,5 hPa 0,0 l/m 10,3 km/h (2 Bft) O-SO 110 0 min 0,000 mm 0 W/m 6,5 C 22,8 C 10,3 km/h (2 Bft) 0,00 %
08.05.2011 11:29 22,7 C 0,0 C 0,0 C 35 % 5 cb 1018,5 hPa 0,0 l/m 9,4 km/h (2 Bft) O 90 0 min 0,000 mm 0 W/m 6,4 C 22,7 C 9,4 km/h (2 Bft) 0,00 %
08.05.2011 11:34 22,3 C 0,0 C 0,0 C 36 % 6 cb 1018,5 hPa 0,0 l/m 9,4 km/h (2 Bft) S 170 0 min 0,000 mm 0 W/m 6,5 C 22,3 C 9,4 km/h (2 Bft) 0,00 %
08.05.2011 11:39 22,6 C 0,0 C 0,0 C 37 % 4 cb 1018,5 hPa 0,0 l/m 11,2 km/h (2 Bft) O 100 0 min 0,000 mm 0 W/m 7,2 C 22,6 C 11,2 km/h (2 Bft) 0,00 %
08.05.2011 11:44 22,6 C 0,0 C 0,0 C 37 % 6 cb 1018,5 hPa 0,0 l/m 8,2 km/h (2 Bft) O-NO 70 0 min 0,000 mm 0 W/m 7,2 C 22,6 C 8,2 km/h (2 Bft) 0,00 %
08.05.2011 11:49 23,4 C 0,0 C 0,0 C 38 % 5 cb 1018,5 hPa 0,0 l/m 7,9 km/h (2 Bft) N 5 0 min 0,000 mm 0 W/m 8,3 C 23,4 C 7,9 km/h (2 Bft) 0,00 %
08.05.2011 11:54 24,0 C 0,0 C 0,0 C 36 % 5 cb 1018,5 hPa 0,0 l/m 7,3 km/h (2 Bft) N-NO 20 0 min 0,000 mm 0 W/m 8,0 C 24,0 C 7,3 km/h (2 Bft) 0,00 %
08.05.2011 11:59 24,0 C 0,0 C 0,0 C 35 % 5 cb 1018,5 hPa 0,0 l/m 7,3 km/h (2 Bft) NO 45 0 min 0,000 mm 0 W/m 7,6 C 24,0 C 7,3 km/h (2 Bft) 0,00 %
08.05.2011 12:04 24,6 C 0,0 C 0,0 C 34 % 5 cb 1018,5 hPa 0,0 l/m 10,6 km/h (2 Bft) O-NO 65 0 min 0,000 mm 0 W/m 7,7 C 24,6 C 10,6 km/h (2 Bft) 0,00 %
08.05.2011 12:09 24,0 C 0,0 C 0,0 C 35 % 6 cb 1018,5 hPa 0,0 l/m 9,7 km/h (2 Bft) SW 230 0 min 0,000 mm 0 W/m 7,6 C 24,0 C 9,7 km/h (2 Bft) 0,00 %
08.05.2011 12:14 23,5 C 0,0 C 0,0 C 35 % 4 cb 1018,5 hPa 0,0 l/m 10,3 km/h (2 Bft) W-NW 300 0 min 0,000 mm 0 W/m 7,1 C 23,5 C 10,3 km/h (2 Bft) 0,00 %
08.05.2011 12:19 23,3 C 0,0 C 0,0 C 36 % 5 cb 1018,5 hPa 0,0 l/m 7,6 km/h (2 Bft) O 90 0 min 0,000 mm 0 W/m 7,4 C 23,3 C 7,6 km/h (2 Bft) 0,00 %
08.05.2011 12:24 23,8 C 0,0 C 0,0 C 37 % 5 cb 1018,5 hPa 0,0 l/m 4,2 km/h (1 Bft) NW 310 0 min 0,000 mm 0 W/m 8,2 C 23,8 C 4,2 km/h (1 Bft) 0,00 %
08.05.2011 12:29 24,4 C 0,0 C 0,0 C 35 % 6 cb 1018,5 hPa 0,0 l/m 5,4 km/h (1 Bft) O-NO 75 0 min 0,000 mm 0 W/m 7,9 C 24,4 C 5,4 km/h (1 Bft) 0,00 %
08.05.2011 12:34 24,2 C 0,0 C 0,0 C 35 % 4 cb 1018,5 hPa 0,0 l/m 7,9 km/h (2 Bft) SO 145 0 min 0,000 mm 0 W/m 7,8 C 24,2 C 7,9 km/h (2 Bft) 0,00 %
08.05.2011 12:39 24,2 C 0,0 C 0,0 C 36 % 5 cb 1018,5 hPa 0,0 l/m 12,7 km/h (3 Bft) O-NO 70 0 min 0,000 mm 0 W/m 8,2 C 24,2 C 12,7 km/h (3 Bft) 0,00 %
08.05.2011 12:44 24,4 C 0,0 C 0,0 C 35 % 5 cb 1018,5 hPa 0,0 l/m 6,4 km/h (2 Bft) O 95 0 min 0,000 mm 0 W/m 7,9 C 24,4 C 6,4 km/h (2 Bft) 0,00 %
08.05.2011 12:49 24,7 C 0,0 C 0,0 C 36 % 5 cb 1018,5 hPa 0,0 l/m 7,6 km/h (2 Bft) N-NW 345 0 min 0,000 mm 0 W/m 8,6 C 24,7 C 7,6 km/h (2 Bft) 0,00 %
08.05.2011 12:54 25,1 C 0,0 C 0,0 C 34 % 6 cb 1018,5 hPa 0,0 l/m 10,9 km/h (2 Bft) O-SO 115 0 min 0,000 mm 0 W/m 8,1 C 25,1 C 10,9 km/h (2 Bft) 0,00 %
08.05.2011 12:59 25,4 C 0,0 C 0,0 C 35 % 5 cb 1018,5 hPa 0,0 l/m 10,6 km/h (2 Bft) S-SO 160 0 min 0,000 mm 0 W/m 8,8 C 25,4 C 10,6 km/h (2 Bft) 0,00 %
08.05.2011 13:04 25,4 C 0,0 C 0,0 C 34 % 5 cb 1018,5 hPa 0,0 l/m 9,4 km/h (2 Bft) O-SO 120 0 min 0,000 mm 0 W/m 8,4 C 25,4 C 9,4 km/h (2 Bft) 0,00 %
08.05.2011 13:09 24,7 C 0,0 C 0,0 C 33 % 5 cb 1018,5 hPa 0,0 l/m 13,9 km/h (3 Bft) N 5 0 min 0,000 mm 0 W/m 7,3 C 24,7 C 13,9 km/h (3 Bft) 0,00 %
08.05.2011 13:14 24,8 C 0,0 C 0,0 C 34 % 3 cb 1018,5 hPa 0,0 l/m 10,9 km/h (2 Bft) SO 145 0 min 0,000 mm 0 W/m 7,9 C 24,8 C 10,9 km/h (2 Bft) 0,00 %
08.05.2011 13:19 25,3 C 0,0 C 0,0 C 34 % 7 cb 1018,5 hPa 0,0 l/m 12,1 km/h (2 Bft) O-NO 60 0 min 0,000 mm 0 W/m 8,3 C 25,3 C 12,1 km/h (2 Bft) 0,00 %
08.05.2011 13:24 25,2 C 0,0 C 0,0 C 33 % 3 cb 1018,5 hPa 0,0 l/m 9,7 km/h (2 Bft) S-SO 155 0 min 0,000 mm 0 W/m 7,8 C 25,2 C 9,7 km/h (2 Bft) 0,00 %
08.05.2011 13:29 25,1 C 0,0 C 0,0 C 33 % 5 cb 1018,5 hPa 0,0 l/m 13,0 km/h (3 Bft) O-SO 110 0 min 0,000 mm 0 W/m 7,7 C 25,1 C 13,0 km/h (3 Bft) 0,00 %
08.05.2011 13:34 25,3 C 0,0 C 0,0 C 33 % 5 cb 1018,5 hPa 0,0 l/m 10,0 km/h (2 Bft) SO 140 0 min 0,000 mm 0 W/m 7,9 C 25,3 C 10,0 km/h (2 Bft) 0,00 %
08.05.2011 13:39 25,7 C 0,0 C 0,0 C 34 % 5 cb 1018,5 hPa 0,0 l/m 11,2 km/h (2 Bft) O-NO 60 0 min 0,000 mm 0 W/m 8,6 C 25,7 C 11,2 km/h (2 Bft) 0,00 %
08.05.2011 13:44 25,7 C 0,0 C 0,0 C 33 % 5 cb 1018,5 hPa 0,0 l/m 8,5 km/h (2 Bft) N-NO 30 0 min 0,000 mm 0 W/m 8,2 C 25,7 C 8,5 km/h (2 Bft) 0,00 %
08.05.2011 13:49 26,2 C 0,0 C 0,0 C 33 % 5 cb 1017,5 hPa 0,0 l/m 11,5 km/h (2 Bft) W-SW 255 0 min 0,000 mm 0 W/m 8,6 C 26,2 C 11,5 km/h (2 Bft) 0,00 %
08.05.2011 13:54 25,9 C 0,0 C 0,0 C 33 % 5 cb 1017,5 hPa 0,0 l/m 12,7 km/h (3 Bft) W 275 0 min 0,000 mm 0 W/m 8,4 C 25,9 C 12,7 km/h (3 Bft) 0,00 %
08.05.2011 13:59 26,5 C 0,0 C 0,0 C 33 % 5 cb 1017,5 hPa 0,0 l/m 12,1 km/h (2 Bft) SW 235 0 min 0,000 mm 0 W/m 8,9 C 26,5 C 12,1 km/h (2 Bft) 0,00 %
08.05.2011 14:04 26,2 C 0,0 C 0,0 C 32 % 5 cb 1017,5 hPa 0,0 l/m 7,9 km/h (2 Bft) N-NW 340 0 min 0,000 mm 0 W/m 8,2 C 26,2 C 7,9 km/h (2 Bft) 0,00 %
08.05.2011 14:09 26,2 C 0,0 C 0,0 C 32 % 5 cb 1017,5 hPa 0,0 l/m 14,2 km/h (3 Bft) NW 315 0 min 0,000 mm 0 W/m 8,2 C 26,2 C 14,2 km/h (3 Bft) 0,00 %
08.05.2011 14:14 26,3 C 0,0 C 0,0 C 31 % 5 cb 1017,5 hPa 0,0 l/m 9,1 km/h (2 Bft) W-SW 240 0 min 0,000 mm 0 W/m 7,8 C 26,3 C 9,1 km/h (2 Bft) 0,00 %
08.05.2011 14:19 26,4 C 0,0 C 0,0 C 31 % 5 cb 1017,5 hPa 0,0 l/m 9,4 km/h (2 Bft) O 100 0 min 0,000 mm 0 W/m 7,9 C 26,4 C 9,4 km/h (2 Bft) 0,00 %
08.05.2011 14:24 26,7 C 0,0 C 0,0 C 32 % 5 cb 1017,5 hPa 0,0 l/m 14,5 km/h (3 Bft) SO 125 0 min 0,000 mm 0 W/m 8,6 C 26,7 C 14,5 km/h (3 Bft) 0,00 %
08.05.2011 14:29 26,6 C 0,0 C 0,0 C 32 % 5 cb 1017,5 hPa 0,0 l/m 7,0 km/h (2 Bft) O 80 0 min 0,000 mm 0 W/m 8,5 C 26,6 C 7,0 km/h (2 Bft) 0,00 %
08.05.2011 14:34 26,7 C 0,0 C 0,0 C 31 % 5 cb 1017,5 hPa 0,0 l/m 7,6 km/h (2 Bft) O-SO 120 0 min 0,000 mm 0 W/m 8,2 C 26,7 C 7,6 km/h (2 Bft) 0,00 %
08.05.2011 14:39 26,7 C 0,0 C 0,0 C 32 % 5 cb 1017,5 hPa 0,0 l/m 14,5 km/h (3 Bft) S 170 0 min 0,000 mm 0 W/m 8,6 C 26,7 C 14,5 km/h (3 Bft) 0,00 %
08.05.2011 14:44 26,8 C 0,0 C 0,0 C 31 % 6 cb 1017,5 hPa 0,0 l/m 10,9 km/h (2 Bft) O 95 0 min 0,000 mm 0 W/m 8,2 C 26,8 C 10,9 km/h (2 Bft) 0,00 %
08.05.2011 14:49 26,9 C 0,0 C 0,0 C 31 % 5 cb 1017,5 hPa 0,0 l/m 13,0 km/h (3 Bft) O 85 0 min 0,000 mm 0 W/m 8,3 C 26,9 C 13,0 km/h (3 Bft) 0,00 %
08.05.2011 14:54 27,2 C 0,0 C 0,0 C 29 % 5 cb 1017,5 hPa 0,0 l/m 5,1 km/h (1 Bft) O 85 0 min 0,000 mm 0 W/m 7,6 C 27,2 C 5,1 km/h (1 Bft) 0,00 %
08.05.2011 14:59 27,3 C 0,0 C 0,0 C 31 % 5 cb 1017,5 hPa 0,0 l/m 13,6 km/h (3 Bft) O 85 0 min 0,000 mm 0 W/m 8,7 C 27,3 C 13,6 km/h (3 Bft) 0,00 %
08.05.2011 15:04 27,4 C 0,0 C 0,0 C 29 % 5 cb 1017,5 hPa 0,0 l/m 10,3 km/h (2 Bft) N-NO 30 0 min 0,000 mm 0 W/m 7,8 C 27,4 C 10,3 km/h (2 Bft) 0,00 %
08.05.2011 15:09 27,2 C 0,0 C 0,0 C 29 % 5 cb 1017,5 hPa 0,0 l/m 13,0 km/h (3 Bft) O-SO 105 0 min 0,000 mm 0 W/m 7,6 C 27,2 C 13,0 km/h (3 Bft) 0,00 %
08.05.2011 15:14 27,3 C 0,0 C 0,0 C 31 % 6 cb 1017,5 hPa 0,0 l/m 12,4 km/h (3 Bft) O-NO 75 0 min 0,000 mm 0 W/m 8,7 C 27,3 C 12,4 km/h (3 Bft) 0,00 %
08.05.2011 15:19 27,8 C 0,0 C 0,0 C 31 % 5 cb 1017,5 hPa 0,0 l/m 7,0 km/h (2 Bft) S-SO 155 0 min 0,000 mm 0 W/m 9,1 C 27,8 C 7,0 km/h (2 Bft) 0,00 %
08.05.2011 15:24 27,8 C 0,0 C 0,0 C 30 % 5 cb 1017,5 hPa 0,0 l/m 7,9 km/h (2 Bft) W 280 0 min 0,000 mm 0 W/m 8,6 C 27,8 C 7,9 km/h (2 Bft) 0,00 %
08.05.2011 15:29 27,7 C 0,0 C 0,0 C 28 % 5 cb 1017,5 hPa 0,0 l/m 13,0 km/h (3 Bft) N 350 0 min 0,000 mm 0 W/m 7,5 C 27,7 C 13,0 km/h (3 Bft) 0,00 %
08.05.2011 15:34 26,4 C 0,0 C 0,0 C 28 % 5 cb 1017,5 hPa 0,0 l/m 13,3 km/h (3 Bft) S-SO 150 0 min 0,000 mm 0 W/m 6,4 C 26,4 C 13,3 km/h (3 Bft) 0,00 %
08.05.2011 15:39 26,9 C 0,0 C 0,0 C 29 % 6 cb 1017,5 hPa 0,0 l/m 4,8 km/h (1 Bft) NO 40 0 min 0,000 mm 0 W/m 7,3 C 26,9 C 4,8 km/h (1 Bft) 0,00 %
08.05.2011 15:44 27,0 C 0,0 C 0,0 C 28 % 4 cb 1017,5 hPa 0,0 l/m 10,3 km/h (2 Bft) O-SO 105 0 min 0,000 mm 0 W/m 6,9 C 27,0 C 10,3 km/h (2 Bft) 0,00 %
08.05.2011 15:49 27,2 C 0,0 C 0,0 C 28 % 5 cb 1017,5 hPa 0,0 l/m 8,2 km/h (2 Bft) O-NO 70 0 min 0,000 mm 0 W/m 7,1 C 27,2 C 8,2 km/h (2 Bft) 0,00 %
08.05.2011 15:54 27,0 C 0,0 C 0,0 C 28 % 3 cb 1017,5 hPa 0,0 l/m 2,7 km/h (1 Bft) SO 125 0 min 0,000 mm 0 W/m 6,9 C 27,0 C 2,7 km/h (1 Bft) 0,00 %
08.05.2011 15:59 27,2 C 0,0 C 0,0 C 28 % 6 cb 1017,5 hPa 0,0 l/m 10,6 km/h (2 Bft) W 260 0 min 0,000 mm 0 W/m 7,1 C 27,2 C 10,6 km/h (2 Bft) 0,00 %
08.05.2011 16:04 27,6 C 0,0 C 0,0 C 27 % 4 cb 1017,5 hPa 0,0 l/m 9,7 km/h (2 Bft) O 90 0 min 0,000 mm 0 W/m 6,9 C 27,6 C 9,7 km/h (2 Bft) 0,00 %
08.05.2011 16:09 27,8 C 0,0 C 0,0 C 28 % 5 cb 1017,5 hPa 0,0 l/m 7,3 km/h (2 Bft) NO 40 0 min 0,000 mm 0 W/m 7,6 C 27,8 C 7,3 km/h (2 Bft) 0,00 %
08.05.2011 16:14 28,0 C 0,0 C 0,0 C 27 % 5 cb 1017,5 hPa 0,0 l/m 9,7 km/h (2 Bft) N-NW 345 0 min 0,000 mm 0 W/m 7,2 C 28,0 C 9,7 km/h (2 Bft) 0,00 %
08.05.2011 16:19 27,8 C 0,0 C 0,0 C 26 % 5 cb 1016,5 hPa 0,0 l/m 11,2 km/h (2 Bft) O-SO 105 0 min 0,000 mm 0 W/m 6,5 C 27,8 C 11,2 km/h (2 Bft) 0,00 %
08.05.2011 16:24 27,9 C 0,0 C 0,0 C 26 % 5 cb 1016,5 hPa 0,0 l/m 13,6 km/h (3 Bft) SO 145 0 min 0,000 mm 0 W/m 6,6 C 27,9 C 13,6 km/h (3 Bft) 0,00 %
08.05.2011 16:29 28,2 C 0,0 C 0,0 C 26 % 6 cb 1016,5 hPa 0,0 l/m 8,5 km/h (2 Bft) O-NO 65 0 min 0,000 mm 0 W/m 6,9 C 28,2 C 8,5 km/h (2 Bft) 0,00 %
08.05.2011 16:34 27,6 C 0,0 C 0,0 C 27 % 2 cb 1017,5 hPa 0,0 l/m 11,5 km/h (2 Bft) S 185 0 min 0,000 mm 0 W/m 6,9 C 27,6 C 11,5 km/h (2 Bft) 0,00 %
08.05.2011 16:39 27,4 C 0,0 C 0,0 C 27 % 7 cb 1017,5 hPa 0,0 l/m 9,1 km/h (2 Bft) SO 130 0 min 0,000 mm 0 W/m 6,7 C 27,4 C 9,1 km/h (2 Bft) 0,00 %
08.05.2011 16:44 27,5 C 0,0 C 0,0 C 27 % 3 cb 1017,5 hPa 0,0 l/m 10,6 km/h (2 Bft) O-SO 120 0 min 0,000 mm 0 W/m 6,8 C 27,5 C 10,6 km/h (2 Bft) 0,00 %
08.05.2011 16:49 27,3 C 0,0 C 0,0 C 27 % 8 cb 1017,5 hPa 0,0 l/m 12,4 km/h (3 Bft) S-SW 195 0 min 0,000 mm 0 W/m 6,6 C 27,3 C 12,4 km/h (3 Bft) 0,00 %
08.05.2011 16:54 27,3 C 0,0 C 0,0 C 28 % 3 cb 1017,5 hPa 0,0 l/m 11,2 km/h (2 Bft) N-NW 330 0 min 0,000 mm 0 W/m 7,2 C 27,3 C 11,2 km/h (2 Bft) 0,00 %
08.05.2011 16:59 27,4 C 0,0 C 0,0 C 27 % 5 cb 1017,5 hPa 0,0 l/m 8,8 km/h (2 Bft) O-NO 60 0 min 0,000 mm 0 W/m 6,7 C 27,4 C 8,8 km/h (2 Bft) 0,00 %
08.05.2011 17:04 26,8 C 0,0 C 0,0 C 28 % 4 cb 1017,5 hPa 0,0 l/m 11,5 km/h (2 Bft) S-SO 155 0 min 0,000 mm 0 W/m 6,8 C 26,8 C 11,5 km/h (2 Bft) 0,00 %
08.05.2011 17:09 26,6 C 0,0 C 0,0 C 28 % 6 cb 1017,5 hPa 0,0 l/m 9,4 km/h (2 Bft) O-SO 120 0 min 0,000 mm 0 W/m 6,6 C 26,6 C 9,4 km/h (2 Bft) 0,00 %
08.05.2011 17:14 26,7 C 0,0 C 0,0 C 28 % 4 cb 1017,5 hPa 0,0 l/m 8,5 km/h (2 Bft) S-SO 165 0 min 0,000 mm 0 W/m 6,7 C 26,7 C 8,5 km/h (2 Bft) 0,00 %
08.05.2011 17:19 27,7 C 0,0 C 0,0 C 27 % 6 cb 1017,5 hPa 0,0 l/m 10,9 km/h (2 Bft) S-SO 150 0 min 0,000 mm 0 W/m 7,0 C 27,7 C 10,9 km/h (2 Bft) 0,00 %
08.05.2011 17:24 26,8 C 0,0 C 0,0 C 27 % 5 cb 1017,5 hPa 0,0 l/m 12,7 km/h (3 Bft) S 190 0 min 0,000 mm 0 W/m 6,2 C 26,8 C 12,7 km/h (3 Bft) 0,00 %
08.05.2011 17:29 27,0 C 0,0 C 0,0 C 29 % 5 cb 1017,5 hPa 0,0 l/m 8,5 km/h (2 Bft) W-NW 285 0 min 0,000 mm 0 W/m 7,4 C 27,0 C 8,5 km/h (2 Bft) 0,00 %
08.05.2011 17:34 27,0 C 0,0 C 0,0 C 28 % 5 cb 1017,5 hPa 0,0 l/m 9,7 km/h (2 Bft) S 180 0 min 0,000 mm 0 W/m 6,9 C 27,0 C 9,7 km/h (2 Bft) 0,00 %
08.05.2011 17:39 27,4 C 0,0 C 0,0 C 28 % 5 cb 1017,5 hPa 0,0 l/m 8,2 km/h (2 Bft) S-SW 210 0 min 0,000 mm 0 W/m 7,3 C 27,4 C 8,2 km/h (2 Bft) 0,00 %
08.05.2011 17:44 27,2 C 0,0 C 0,0 C 28 % 5 cb 1017,5 hPa 0,0 l/m 9,1 km/h (2 Bft) SO 135 0 min 0,000 mm 0 W/m 7,1 C 27,2 C 9,1 km/h (2 Bft) 0,00 %
08.05.2011 17:49 26,7 C 0,0 C 0,0 C 28 % 5 cb 1017,5 hPa 0,0 l/m 7,6 km/h (2 Bft) N 350 0 min 0,000 mm 0 W/m 6,7 C 26,7 C 7,6 km/h (2 Bft) 0,00 %
08.05.2011 17:54 26,8 C 0,0 C 0,0 C 29 % 6 cb 1017,5 hPa 0,0 l/m 4,8 km/h (1 Bft) S-SO 155 0 min 0,000 mm 0 W/m 7,3 C 26,8 C 4,8 km/h (1 Bft) 0,00 %
08.05.2011 17:59 26,6 C 0,0 C 0,0 C 29 % 4 cb 1017,5 hPa 0,0 l/m 7,9 km/h (2 Bft) N-NO 15 0 min 0,000 mm 0 W/m 7,1 C 26,6 C 7,9 km/h (2 Bft) 0,00 %
08.05.2011 18:04 26,7 C 0,0 C 0,0 C 29 % 6 cb 1017,5 hPa 0,0 l/m 6,7 km/h (2 Bft) N-NO 15 0 min 0,000 mm 0 W/m 7,2 C 26,7 C 6,7 km/h (2 Bft) 0,00 %
08.05.2011 18:09 26,5 C 0,0 C 0,0 C 29 % 4 cb 1017,5 hPa 0,0 l/m 8,5 km/h (2 Bft) NO 50 0 min 0,000 mm 0 W/m 7,0 C 26,5 C 8,5 km/h (2 Bft) 0,00 %
08.05.2011 18:14 26,2 C 0,0 C 0,0 C 30 % 6 cb 1017,5 hPa 0,0 l/m 8,5 km/h (2 Bft) SW 225 0 min 0,000 mm 0 W/m 7,2 C 26,2 C 8,5 km/h (2 Bft) 0,00 %
08.05.2011 18:19 26,1 C 0,0 C 0,0 C 30 % 5 cb 1017,5 hPa 0,0 l/m 9,1 km/h (2 Bft) O-SO 115 0 min 0,000 mm 0 W/m 7,2 C 26,1 C 9,1 km/h (2 Bft) 0,00 %
08.05.2011 18:24 26,3 C 0,0 C 0,0 C 30 % 5 cb 1017,5 hPa 0,0 l/m 12,4 km/h (3 Bft) O-SO 105 0 min 0,000 mm 0 W/m 7,3 C 26,3 C 12,4 km/h (3 Bft) 0,00 %
08.05.2011 18:29 26,2 C 0,0 C 0,0 C 30 % 3 cb 1017,5 hPa 0,0 l/m 6,7 km/h (2 Bft) W 275 0 min 0,000 mm 0 W/m 7,2 C 26,2 C 6,7 km/h (2 Bft) 0,00 %
08.05.2011 18:34 25,7 C 0,0 C 0,0 C 30 % 4 cb 1017,5 hPa 0,0 l/m 9,7 km/h (2 Bft) O-SO 110 0 min 0,000 mm 0 W/m 6,8 C 25,7 C 9,7 km/h (2 Bft) 0,00 %
08.05.2011 18:39 25,6 C 0,0 C 0,0 C 31 % 2 cb 1017,5 hPa 0,0 l/m 10,3 km/h (2 Bft) W-SW 255 0 min 0,000 mm 0 W/m 7,2 C 25,6 C 10,3 km/h (2 Bft) 0,00 %
08.05.2011 18:44 25,6 C 0,0 C 0,0 C 30 % 3 cb 1017,5 hPa 0,0 l/m 7,6 km/h (2 Bft) NO 45 0 min 0,000 mm 0 W/m 6,7 C 25,6 C 7,6 km/h (2 Bft) 0,00 %
08.05.2011 18:49 25,4 C 0,0 C 0,0 C 30 % 0 cb 1017,5 hPa 0,0 l/m 9,1 km/h (2 Bft) SO 125 0 min 0,000 mm 0 W/m 6,6 C 25,4 C 9,1 km/h (2 Bft) 0,00 %
08.05.2011 18:54 25,4 C 0,0 C 0,0 C 30 % 0 cb 1017,5 hPa 0,0 l/m 3,6 km/h (1 Bft) S 170 0 min 0,000 mm 0 W/m 6,6 C 25,4 C 3,6 km/h (1 Bft) 0,00 %
08.05.2011 18:59 25,2 C 0,0 C 0,0 C 30 % 0 cb 1017,5 hPa 0,0 l/m 4,8 km/h (1 Bft) S 190 0 min 0,000 mm 0 W/m 6,4 C 25,2 C 4,8 km/h (1 Bft) 0,00 %
08.05.2011 19:04 25,1 C 0,0 C 0,0 C 30 % 0 cb 1017,5 hPa 0,0 l/m 3,0 km/h (1 Bft) N-NW 335 0 min 0,000 mm 0 W/m 6,3 C 25,1 C 3,0 km/h (1 Bft) 0,00 %
08.05.2011 19:09 25,0 C 0,0 C 0,0 C 32 % 0 cb 1017,5 hPa 0,0 l/m 4,8 km/h (1 Bft) O 90 0 min 0,000 mm 0 W/m 7,1 C 25,0 C 4,8 km/h (1 Bft) 0,00 %
08.05.2011 19:14 24,8 C 0,0 C 0,0 C 30 % 0 cb 1017,5 hPa 0,0 l/m 8,8 km/h (2 Bft) O-SO 120 0 min 0,000 mm 0 W/m 6,0 C 24,8 C 8,8 km/h (2 Bft) 0,00 %
08.05.2011 19:19 24,7 C 0,0 C 0,0 C 30 % 0 cb 1017,5 hPa 0,0 l/m 7,3 km/h (2 Bft) O-NO 70 0 min 0,000 mm 0 W/m 6,0 C 24,7 C 7,3 km/h (2 Bft) 0,00 %
08.05.2011 19:24 24,6 C 0,0 C 0,0 C 30 % 0 cb 1017,5 hPa 0,0 l/m 4,2 km/h (1 Bft) W-NW 300 0 min 0,000 mm 0 W/m 5,9 C 24,6 C 4,2 km/h (1 Bft) 0,00 %
08.05.2011 19:29 24,4 C 0,0 C 0,0 C 30 % 0 cb 1017,5 hPa 0,0 l/m 5,7 km/h (1 Bft) N 10 0 min 0,000 mm 0 W/m 5,7 C 24,4 C 5,7 km/h (1 Bft) 0,00 %
08.05.2011 19:34 24,3 C 0,0 C 0,0 C 30 % 0 cb 1017,5 hPa 0,0 l/m 6,7 km/h (2 Bft) S-SO 160 0 min 0,000 mm 0 W/m 5,6 C 24,3 C 6,7 km/h (2 Bft) 0,00 %
08.05.2011 19:39 24,3 C 0,0 C 0,0 C 31 % 0 cb 1017,5 hPa 0,0 l/m 1,8 km/h (1 Bft) N-NO 25 0 min 0,000 mm 0 W/m 6,1 C 24,3 C 1,8 km/h (1 Bft) 0,00 %
08.05.2011 19:44 24,4 C 0,0 C 0,0 C 31 % 0 cb 1017,5 hPa 0,0 l/m 3,6 km/h (1 Bft) O-NO 75 0 min 0,000 mm 0 W/m 6,2 C 24,4 C 3,6 km/h (1 Bft) 0,00 %
08.05.2011 19:49 24,2 C 0,0 C 0,0 C 31 % 0 cb 1017,5 hPa 0,0 l/m 1,2 km/h (1 Bft) W-SW 245 0 min 0,000 mm 0 W/m 6,0 C 24,2 C 1,2 km/h (1 Bft) 0,00 %
08.05.2011 19:54 24,2 C 0,0 C 0,0 C 31 % 0 cb 1017,5 hPa 0,0 l/m 5,1 km/h (1 Bft) O 95 0 min 0,000 mm 0 W/m 6,0 C 24,2 C 5,1 km/h (1 Bft) 0,00 %
08.05.2011 19:59 23,8 C 0,0 C 0,0 C 33 % 0 cb 1017,5 hPa 0,0 l/m 1,8 km/h (1 Bft) NW 325 0 min 0,000 mm 0 W/m 6,6 C 23,8 C 1,8 km/h (1 Bft) 0,00 %
08.05.2011 20:04 23,6 C 0,0 C 0,0 C 33 % 0 cb 1017,5 hPa 0,0 l/m 2,4 km/h (1 Bft) O-NO 65 0 min 0,000 mm 0 W/m 6,4 C 23,6 C 2,4 km/h (1 Bft) 0,00 %
08.05.2011 20:09 23,3 C 0,0 C 0,0 C 32 % 0 cb 1017,5 hPa 0,0 l/m 4,8 km/h (1 Bft) W-NW 290 0 min 0,000 mm 0 W/m 5,7 C 23,3 C 4,8 km/h (1 Bft) 0,00 %
08.05.2011 20:14 23,0 C 0,0 C 0,0 C 33 % 0 cb 1017,5 hPa 0,0 l/m 1,2 km/h (1 Bft) S-SO 155 0 min 0,000 mm 0 W/m 5,9 C 23,0 C 1,2 km/h (1 Bft) 0,00 %
08.05.2011 20:19 22,7 C 0,0 C 0,0 C 34 % 0 cb 1017,5 hPa 0,0 l/m 1,8 km/h (1 Bft) NW 325 0 min 0,000 mm 0 W/m 6,0 C 22,7 C 1,8 km/h (1 Bft) 0,00 %
08.05.2011 20:24 22,4 C 0,0 C 0,0 C 34 % 0 cb 1017,5 hPa 0,0 l/m 3,0 km/h (1 Bft) O-NO 60 0 min 0,000 mm 0 W/m 5,8 C 22,4 C 3,0 km/h (1 Bft) 0,00 %
08.05.2011 20:29 22,2 C 0,0 C 0,0 C 34 % 0 cb 1017,5 hPa 0,0 l/m 1,5 km/h (1 Bft) N 350 0 min 0,000 mm 0 W/m 5,6 C 22,2 C 1,5 km/h (1 Bft) 0,00 %
08.05.2011 20:34 21,7 C 0,0 C 0,0 C 35 % 0 cb 1017,5 hPa 0,0 l/m 2,7 km/h (1 Bft) N-NW 345 0 min 0,000 mm 0 W/m 5,6 C 21,7 C 2,7 km/h (1 Bft) 0,00 %
08.05.2011 20:39 21,7 C 0,0 C 0,0 C 35 % 0 cb 1017,5 hPa 0,0 l/m 2,7 km/h (1 Bft) N-NW 345 0 min 0,000 mm 0 W/m 5,6 C 21,7 C 2,7 km/h (1 Bft) 0,00 %
08.05.2011 20:44 21,4 C 0,0 C 0,0 C 35 % 0 cb 1017,5 hPa 0,0 l/m 5,1 km/h (1 Bft) N-NO 25 0 min 0,000 mm 0 W/m 5,3 C 21,4 C 5,1 km/h (1 Bft) 0,00 %
08.05.2011 20:49 21,2 C 0,0 C 0,0 C 35 % 0 cb 1017,5 hPa 0,0 l/m 2,4 km/h (1 Bft) N 355 0 min 0,000 mm 0 W/m 5,1 C 21,2 C 2,4 km/h (1 Bft) 0,00 %
08.05.2011 20:54 21,0 C 0,0 C 0,0 C 35 % 0 cb 1017,5 hPa 0,0 l/m 0,0 km/h (0 Bft) W 280 0 min 0,000 mm 0 W/m 5,0 C 21,0 C 0,0 km/h (0 Bft) 0,00 %
08.05.2011 20:59 20,7 C 0,0 C 0,0 C 36 % 0 cb 1017,5 hPa 0,0 l/m 0,0 km/h (0 Bft) N 355 0 min 0,000 mm 0 W/m 5,1 C 20,7 C 0,0 km/h (0 Bft) 0,00 %
08.05.2011 21:04 20,6 C 0,0 C 0,0 C 36 % 0 cb 1017,5 hPa 0,0 l/m 4,2 km/h (1 Bft) N-NW 330 0 min 0,000 mm 0 W/m 5,0 C 20,6 C 4,2 km/h (1 Bft) 0,00 %
08.05.2011 21:09 20,4 C 0,0 C 0,0 C 36 % 0 cb 1017,5 hPa 0,0 l/m 0,0 km/h (0 Bft) N-NO 15 0 min 0,000 mm 0 W/m 4,8 C 20,4 C 0,0 km/h (0 Bft) 0,00 %
08.05.2011 21:14 20,2 C 0,0 C 0,0 C 36 % 0 cb 1017,5 hPa 0,0 l/m 4,5 km/h (1 Bft) NW 325 0 min 0,000 mm 0 W/m 4,7 C 20,2 C 4,5 km/h (1 Bft) 0,00 %
08.05.2011 21:19 20,1 C 0,0 C 0,0 C 36 % 0 cb 1017,5 hPa 0,0 l/m 3,0 km/h (1 Bft) N 355 0 min 0,000 mm 0 W/m 4,6 C 20,1 C 3,0 km/h (1 Bft) 0,00 %
08.05.2011 21:24 20,2 C 0,0 C 0,0 C 36 % 0 cb 1017,5 hPa 0,0 l/m 3,3 km/h (1 Bft) N-NW 335 0 min 0,000 mm 0 W/m 4,7 C 20,2 C 3,3 km/h (1 Bft) 0,00 %
08.05.2011 21:29 19,9 C 0,0 C 0,0 C 35 % 0 cb 1017,5 hPa 0,0 l/m 2,1 km/h (1 Bft) N 350 0 min 0,000 mm 0 W/m 4,0 C 19,9 C 2,1 km/h (1 Bft) 0,00 %
08.05.2011 21:34 19,8 C 0,0 C 0,0 C 35 % 0 cb 1018,5 hPa 0,0 l/m 1,5 km/h (1 Bft) N 0 0 min 0,000 mm 0 W/m 3,9 C 19,8 C 1,5 km/h (1 Bft) 0,00 %
08.05.2011 21:39 19,6 C 0,0 C 0,0 C 35 % 0 cb 1018,5 hPa 0,0 l/m 3,3 km/h (1 Bft) W-NW 285 0 min 0,000 mm 0 W/m 3,7 C 19,6 C 3,3 km/h (1 Bft) 0,00 %
08.05.2011 21:44 19,5 C 0,0 C 0,0 C 35 % 0 cb 1018,5 hPa 0,0 l/m 1,2 km/h (1 Bft) NW 325 0 min 0,000 mm 0 W/m 3,6 C 19,5 C 1,2 km/h (1 Bft) 0,00 %
08.05.2011 21:49 19,4 C 0,0 C 0,0 C 35 % 0 cb 1018,5 hPa 0,0 l/m 3,6 km/h (1 Bft) NW 325 0 min 0,000 mm 0 W/m 3,5 C 19,4 C 3,6 km/h (1 Bft) 0,00 %
08.05.2011 21:54 19,4 C 0,0 C 0,0 C 35 % 0 cb 1018,5 hPa 0,0 l/m 0,0 km/h (0 Bft) W 280 0 min 0,000 mm 0 W/m 3,5 C 19,4 C 0,0 km/h (0 Bft) 0,00 %
08.05.2011 21:59 19,2 C 0,0 C 0,0 C 35 % 0 cb 1018,5 hPa 0,0 l/m 0,6 km/h (0 Bft) N 350 0 min 0,000 mm 0 W/m 3,4 C 19,2 C 0,6 km/h (0 Bft) 0,00 %
08.05.2011 22:04 19,3 C 0,0 C 0,0 C 34 % 0 cb 1018,5 hPa 0,0 l/m 3,9 km/h (1 Bft) N 350 0 min 0,000 mm 0 W/m 3,0 C 19,3 C 3,9 km/h (1 Bft) 0,00 %
08.05.2011 22:09 19,1 C 0,0 C 0,0 C 34 % 0 cb 1018,5 hPa 0,0 l/m 0,6 km/h (0 Bft) O-SO 105 0 min 0,000 mm 0 W/m 2,9 C 19,1 C 0,6 km/h (0 Bft) 0,00 %
08.05.2011 22:14 19,2 C 0,0 C 0,0 C 34 % 0 cb 1018,5 hPa 0,0 l/m 0,3 km/h (0 Bft) S-SW 205 0 min 0,000 mm 0 W/m 3,0 C 19,2 C 0,3 km/h (0 Bft) 0,00 %
08.05.2011 22:19 19,3 C 0,0 C 0,0 C 34 % 0 cb 1018,5 hPa 0,0 l/m 1,2 km/h (1 Bft) NO 50 0 min 0,000 mm 0 W/m 3,0 C 19,3 C 1,2 km/h (1 Bft) 0,00 %
08.05.2011 22:24 19,1 C 0,0 C 0,0 C 34 % 0 cb 1018,5 hPa 0,0 l/m 0,6 km/h (0 Bft) NW 315 0 min 0,000 mm 0 W/m 2,9 C 19,1 C 0,6 km/h (0 Bft) 0,00 %
08.05.2011 22:29 19,0 C 0,0 C 0,0 C 34 % 0 cb 1018,5 hPa 0,0 l/m 3,0 km/h (1 Bft) N 350 0 min 0,000 mm 0 W/m 2,8 C 19,0 C 3,0 km/h (1 Bft) 0,00 %
08.05.2011 22:34 19,2 C 0,0 C 0,0 C 33 % 0 cb 1018,5 hPa 0,0 l/m 6,1 km/h (2 Bft) N-NW 345 0 min 0,000 mm 0 W/m 2,5 C 19,2 C 6,1 km/h (2 Bft) 0,00 %
08.05.2011 22:39 19,0 C 0,0 C 0,0 C 33 % 0 cb 1018,5 hPa 0,0 l/m 2,1 km/h (1 Bft) S 175 0 min 0,000 mm 0 W/m 2,4 C 19,0 C 2,1 km/h (1 Bft) 0,00 %
08.05.2011 22:44 19,1 C 0,0 C 0,0 C 32 % 0 cb 1018,5 hPa 0,0 l/m 3,6 km/h (1 Bft) N-NO 20 0 min 0,000 mm 0 W/m 2,0 C 19,1 C 3,6 km/h (1 Bft) 0,00 %
08.05.2011 22:49 19,3 C 0,0 C 0,0 C 32 % 0 cb 1018,5 hPa 0,0 l/m 6,1 km/h (2 Bft) N 350 0 min 0,000 mm 0 W/m 2,2 C 19,3 C 6,1 km/h (2 Bft) 0,00 %
08.05.2011 22:54 19,3 C 0,0 C 0,0 C 31 % 0 cb 1018,5 hPa 0,0 l/m 3,6 km/h (1 Bft) NW 315 0 min 0,000 mm 0 W/m 1,8 C 19,3 C 3,6 km/h (1 Bft) 0,00 %
08.05.2011 22:59 19,5 C 0,0 C 0,0 C 30 % 0 cb 1018,5 hPa 0,0 l/m 4,8 km/h (1 Bft) NO 50 0 min 0,000 mm 0 W/m 1,5 C 19,5 C 4,8 km/h (1 Bft) 0,00 %
08.05.2011 23:04 19,3 C 0,0 C 0,0 C 30 % 0 cb 1018,5 hPa 0,0 l/m 3,3 km/h (1 Bft) O 100 0 min 0,000 mm 0 W/m 1,3 C 19,3 C 3,3 km/h (1 Bft) 0,00 %
08.05.2011 23:09 19,3 C 0,0 C 0,0 C 30 % 0 cb 1018,5 hPa 0,0 l/m 5,4 km/h (1 Bft) NW 325 0 min 0,000 mm 0 W/m 1,3 C 19,3 C 5,4 km/h (1 Bft) 0,00 %
08.05.2011 23:14 19,4 C 0,0 C 0,0 C 30 % 0 cb 1018,5 hPa 0,0 l/m 5,7 km/h (1 Bft) NO 45 0 min 0,000 mm 0 W/m 1,4 C 19,4 C 5,7 km/h (1 Bft) 0,00 %
08.05.2011 23:19 19,4 C 0,0 C 0,0 C 30 % 0 cb 1018,5 hPa 0,0 l/m 3,6 km/h (1 Bft) O-SO 120 0 min 0,000 mm 0 W/m 1,4 C 19,4 C 3,6 km/h (1 Bft) 0,00 %
08.05.2011 23:24 19,2 C 0,0 C 0,0 C 30 % 0 cb 1018,5 hPa 0,0 l/m 2,4 km/h (1 Bft) N 350 0 min 0,000 mm 0 W/m 1,2 C 19,2 C 2,4 km/h (1 Bft) 0,00 %
08.05.2011 23:29 19,2 C 0,0 C 0,0 C 29 % 0 cb 1018,5 hPa 0,0 l/m 3,9 km/h (1 Bft) W-NW 295 0 min 0,000 mm 0 W/m 0,7 C 19,2 C 3,9 km/h (1 Bft) 0,00 %
08.05.2011 23:34 19,4 C 0,0 C 0,0 C 29 % 0 cb 1018,5 hPa 0,0 l/m 4,5 km/h (1 Bft) N-NW 340 0 min 0,000 mm 0 W/m 0,9 C 19,4 C 4,5 km/h (1 Bft) 0,00 %
08.05.2011 23:39 19,3 C 0,0 C 0,0 C 29 % 0 cb 1018,5 hPa 0,0 l/m 0,0 km/h (0 Bft) N-NW 335 0 min 0,000 mm 0 W/m 0,8 C 19,3 C 0,0 km/h (0 Bft) 0,00 %
08.05.2011 23:44 19,1 C 0,0 C 0,0 C 30 % 0 cb 1018,5 hPa 0,0 l/m 1,5 km/h (1 Bft) SO 135 0 min 0,000 mm 0 W/m 1,1 C 19,1 C 1,5 km/h (1 Bft) 0,00 %
08.05.2011 23:49 19,2 C 0,0 C 0,0 C 30 % 0 cb 1018,5 hPa 0,0 l/m 5,7 km/h (1 Bft) N-NO 15 0 min 0,000 mm 0 W/m 1,2 C 19,2 C 5,7 km/h (1 Bft) 0,00 %
08.05.2011 23:54 19,0 C 0,0 C 0,0 C 30 % 0 cb 1018,5 hPa 0,0 l/m 2,1 km/h (1 Bft) N 350 0 min 0,000 mm 0 W/m 1,0 C 19,0 C 2,1 km/h (1 Bft) 0,00 %
08.05.2011 23:59 18,8 C 0,0 C 0,0 C 30 % 0 cb 1018,5 hPa 0,0 l/m 2,1 km/h (1 Bft) N-NO 25 0 min 0,000 mm 0 W/m 0,9 C 18,8 C 2,1 km/h (1 Bft) 0,00 %
_ Min-Zeit 05:44 00:04 00:04 16:19 00:04 00:04 - 00:29 - - - - - 23:29 05:44 00:29 00:04
Minimum _ 11,7 C 0,0 C 0,0 C 26 % 0 cb 1016,5 hPa - 0,0 km/h (0 Bft) - - - - - 0,7 C 11,7 C 0,0 km/h (0 Bft) 0,00 %
_ Max-Zeit 16:29 00:04 00:04 05:39 16:49 07:34 00:04 14:24 - - 00:04 00:04 00:04 15:19 16:29 14:24 00:04
Maximum _ 28,2 C 0,0 C 0,0 C 56 % 8 cb 1018,5 hPa 0,0 l/m 14,5 km/h
SO (3 Bft)
- - 0 min 0,000 mm 0 W/m 9,1 C 28,2 C 14,5 km/h
SO (3 Bft)
0,00 %
Durchschnitt _ 20,1 C 0,0 C 0,0 C 38 % 2 cb 1017,6 hPa #0,0 l/m 5,3 km/h (1 Bft) N - #0 min. #0,000 mm 0 W/m 5,0 C 20,1 C 5,3 km/h (1 Bft) 0,00 %
Wetterstation Gdesweiler